Terminal Aerodrome Forecast
Issued by NWS Nashville, TN

Home | Current Version | Previous Version | Text Only | Print | Product List | Glossary On
Versions: 1 2 3 4 5 6 7 8 9 10 11 12 13
000
FTUS44 KOHX 191100
TAFBNA
TAF
KBNA 191121Z 1912/2012 03006KT P6SM SCT250
     FM191500 03012G20KT P6SM SCT250
     FM201000 04004KT P6SM SKC=

USA.gov is the U.S. government's official web portal to all federal, state and local government web resources and services.